ES8TJM-10 Weather Reports


Display with metric or nautical units.
time (UTC)temp
F
wind
direction
speed
MPH
gust
MPH
rain 1hr
in
rain 24hr
in
rain mn
in
humidity
%
barometer
mb
20260504050217 48 135 3.0 4.0 0.00 0.00 0.00 90 1005.7
20260504045403 48 123 2.0 2.0 0.00 0.00 0.00 92 1005.9
20260504044504 47 89 2.0 3.0 0.00 0.00 0.00 92 1006.0
20260504043603 47 78 1.0 2.0 0.00 0.00 0.00 93 1006.1
20260504042703 46 61 3.0 3.0 0.00 0.00 0.00 94 1006.2
20260504041803 45 45 1.0 3.0 0.00 0.00 0.00 94 1006.3
20260504041117 45 0 0.0 0.0 0.00 0.00 0.00 94 1006.3
20260504040217 43 0 0.0 0.0 0.00 0.00 0.00 96 1006.5
20260504035403 42 0 0.0 0.0 0.00 0.00 0.00 96 1006.8
20260504034503 41 188 1.0 2.0 0.00 0.00 0.00 95 1006.8
20260504033817 41 184 2.0 2.0 0.00 0.00 0.00 95 1006.9
20260504032916 41 180 2.0 2.0 0.00 0.00 0.00 95 1006.8
20260504031803 40 184 0.0 2.0 0.00 0.00 0.00 95 1006.8
20260504030903 40 97 1.0 2.0 0.00 0.00 0.00 95 1006.7
20260504030003 40 62 2.0 2.0 0.00 0.00 0.00 95 1006.8
20260504025618 40 52 2.0 2.0 0.00 0.00 0.00 95 1006.8
20260504024503 40 45 2.0 2.0 0.00 0.00 0.00 95 1006.9
20260504023603 41 22 2.0 3.0 0.00 0.00 0.00 94 1006.9
20260504022703 41 37 3.0 4.0 0.00 0.00 0.00 93 1007.0
20260504021803 41 16 1.0 2.0 0.00 0.00 0.00 93 1007.0
20260504021117 42 360 0.0 2.0 0.00 0.00 0.00 93 1007.2
20260504020004 42 360 0.0 1.0 0.00 0.00 0.00 93 1007.4
20260504015618 42 360 0.0 2.0 0.00 0.00 0.00 93 1007.5
20260504014503 42 360 2.0 2.0 0.00 0.00 0.00 93 1007.4
20260504013603 42 360 0.0 1.0 0.00 0.00 0.00 93 1007.5
20260504012703 42 360 0.0 2.0 0.00 0.00 0.00 93 1007.5
20260504011803 42 345 1.0 2.0 0.00 0.00 0.00 93 1007.6
20260504010904 42 0 0.0 0.0 0.00 0.00 0.00 92 1007.7
20260504010003 43 360 0.0 1.0 0.00 0.00 0.00 92 1007.6
20260504005403 43 360 1.0 2.0 0.00 0.00 0.00 92 1007.6
20260504004503 43 323 2.0 2.0 0.00 0.00 0.00 91 1007.8
20260504003603 43 315 2.0 2.0 0.00 0.00 0.00 92 1007.7
20260504002703 43 332 1.0 2.0 0.00 0.00 0.00 92 1007.8
20260504001803 43 180 1.0 2.0 0.00 0.00 0.00 91 1007.9
20260504000903 43 170 1.0 2.0 0.00 0.00 0.00 91 1008.0
20260504000004 43 135 0.0 1.0 0.00 0.00 0.00 91 1008.0
20260503235403 43 95 1.0 2.0 0.00 0.00 0.00 91 1007.9
20260503234503 43 74 2.0 2.0 0.00 0.00 0.00 91 1007.9
20260503233603 43 60 2.0 2.0 0.00 0.00 0.00 91 1008.0
20260503232703 43 90 0.0 2.0 0.00 0.00 0.00 91 1008.1
20260503232018 43 101 0.0 1.0 0.00 0.00 0.00 91 1008.1
20260503231118 43 90 0.0 1.0 0.00 0.00 0.00 91 1008.1
20260503230003 44 0 0.0 0.0 0.00 0.00 0.00 91 1008.2
20260503225403 44 0 0.0 0.0 0.00 0.00 0.00 91 1008.3
20260503224504 44 0 0.0 0.0 0.00 0.00 0.00 91 1008.2
20260503223817 44 0 0.0 0.0 0.00 0.00 0.00 91 1008.2
20260503222917 44 0 0.0 0.0 0.00 0.00 0.00 91 1008.4
20260503221803 44 0 0.0 0.0 0.00 0.00 0.00 91 1008.4
20260503220903 44 270 0.0 1.0 0.00 0.00 0.00 90 1008.5
20260503220003 44 292 1.0 2.0 0.00 0.00 0.00 90 1008.5
20260503215404 44 315 2.0 3.0 0.00 0.00 0.00 90 1008.5
20260503214503 43 315 3.0 3.0 0.00 0.00 0.00 89 1008.6
20260503213603 43 322 1.0 2.0 0.00 0.00 0.00 89 1008.4
20260503212918 43 18 1.0 2.0 0.00 0.00 0.00 88 1008.3
20260503211804 43 119 2.0 4.0 0.00 0.00 0.00 88 1008.5
20260503210903 44 135 3.0 4.0 0.00 0.00 0.00 88 1008.2
20260503210005 44 135 2.0 2.0 0.00 0.00 0.00 88 1008.4
20260503205618 44 135 2.0 3.0 0.00 0.00 0.00 88 1008.6
20260503204717 44 135 1.0 3.0 0.00 0.00 0.00 87 1008.4
20260503203603 44 0 0.0 0.0 0.00 0.00 0.00 87 1008.7
20260503202918 44 110 1.0 2.0 0.00 0.00 0.00 87 1008.6
20260503201803 44 99 1.0 2.0 0.00 0.00 0.00 87 1008.5
20260503201116 44 164 1.0 2.0 0.00 0.00 0.00 86 1008.6
20260503200003 45 140 2.0 2.0 0.00 0.00 0.00 84 1008.8
20260503195403 45 162 2.0 2.0 0.00 0.00 0.00 84 1008.7
20260503194503 46 225 2.0 2.0 0.00 0.00 0.00 84 1008.8
20260503193603 46 236 2.0 3.0 0.00 0.00 0.00 84 1008.8
20260503192703 46 197 3.0 4.0 0.00 0.00 0.00 83 1009.0
20260503191803 47 196 3.0 4.0 0.00 0.00 0.00 83 1008.8
20260503190903 47 187 4.0 5.0 0.00 0.00 0.00 83 1008.9
20260503190003 47 189 4.0 5.0 0.00 0.00 0.00 83 1008.9
20260503185403 48 202 4.0 6.0 0.00 0.00 0.00 82 1009.0
20260503184503 48 217 6.0 7.0 0.00 0.00 0.00 81 1009.1
20260503183818 48 199 6.0 8.0 0.00 0.00 0.00 80 1009.1
20260503182703 49 210 7.0 10.0 0.00 0.00 0.00 79 1008.8
20260503181803 49 204 8.0 10.0 0.00 0.00 0.00 79 1008.9
20260503181118 50 211 9.0 10.0 0.00 0.00 0.00 78 1009.0
20260503180004 50 205 6.0 10.0 0.00 0.00 0.00 74 1008.7
20260503175403 51 200 6.0 8.0 0.00 0.00 0.00 74 1008.6
20260503174504 51 223 7.0 8.0 0.00 0.00 0.00 72 1008.4
20260503173817 52 225 7.0 8.0 0.00 0.00 0.00 72 1008.5
20260503172918 52 223 7.0 8.0 0.00 0.00 0.00 71 1008.3
20260503171803 54 207 6.0 8.0 0.00 0.00 0.00 65 1008.3
20260503171117 56 210 5.0 6.0 0.00 0.00 0.00 63 1008.2
20260503170217 57 180 4.0 5.0 0.00 0.00 0.00 60 1008.2
20260503150903 64 211 5.0 6.0 0.00 0.00 0.00 46 1008.7
20260503150218 63 212 5.0 6.0 0.00 0.00 0.00 47 1008.7
20260503130903 60 210 6.0 8.0 0.00 0.00 0.00 53 1009.2
20260503120217 58 200 5.0 6.0 0.00 0.00 0.00 57 1009.5
20260503090218 50 214 14.0 18.0 0.00 0.00 0.00 75 1009.8
20260503080903 54 216 6.0 8.0 0.00 0.00 0.00 67 1008.8
20260503080217 54 196 6.0 8.0 0.00 0.00 0.00 69 1009.0
20260503072704 50 181 6.0 8.0 0.00 0.00 0.00 76 1009.2
20260503071803 50 202 5.0 7.0 0.00 0.00 0.00 76 1009.3
20260503070903 50 183 5.0 6.0 0.00 0.00 0.00 77 1009.3
20260503070217 50 181 4.0 6.0 0.00 0.00 0.00 79 1009.4